Reus, Spain

7:03 AM CET en Diciembre 15, 2017 (GMT +0100)
Reus Air Base

Tiempo Historia de LERS - Diciembre, 2017

Change the Weather History Date:

Jueves, Diciembre 7, 2017

  Actual Average Record
Temperature  
Temperatura media 48 ° F -  
Temperatura máxima 59 ° F 56 ° F 64 ° F (2001)
Temperatura mínima 36 ° F 40 ° F 30 ° F (2013)
Degree Days  
Grados día de calefacción 18    
Moisture  
Punto de rocío 38 ° F    
Average Humidity 76    
Maximum Humidity 100    
Minimum Humidity 29    
Precipitación  
Precipitación 0.00 pul - - ()
Presión al nivel del mar  
Presión al nivel del mar 30.42 pul    
Viento  
Velocidad del viento 5 mph ()    
Velocidad máxima del viento 9 mph    
Max Gust Speed -    
Visibilidad 6.7 Millas    
Eventos      
Averages and records for this station are not official NWS values.
T = Trace of Precipitation, MM = Missing Value Source: Averaged Metar Reports

Daily Weather History Graph

Daily Weather History Graph

Search for Another Location

Airport or City:

Trip Planner

Search our weather history database for the weather conditions in past years. The results will help you decide how hot, cold, wet, or windy it might be!

Date:

Astronomía

Dec. 07, 2017 Salida Puesta
Hora real 8:07 AM CET 5:26 PM CET
Crepúsculo civil 7:36 AM CET 5:57 PM CET
Crepúsculo náutico 7:01 AM CET 6:31 PM CET
Crepúsculo astronómico 6:28 AM CET 7:05 PM CET
Luna 9:56 PM CET (12/7) 11:34 AM CET (12/7)
Horas de luz 10h 21m
Horas de luz
9h 19m
Gibosa menguante, 80% of the Moon is Illuminated
Dic 7
Gibosa menguante
Dic 10
Cuarto menguante
Dic 18
Nueva
Dic 26
Cuarto creciente
Ene 2
Luna llena

Hourly Weather History & Observations

Hora (CET) Temp. Vientos helados Punto de rocío Humedad Presión Visibilidad Wind Dir Velocidad del viento Velocidad de ráfagas Precip Eventos Condiciones
12:00 AM 38 ° F - 37 ° F 96% 30.52 pul 4 mi Norte 6.9 mph - -  
12:00 AM 37.4 ° F 34.9 ° F 37.4 ° F 100% 30.48 pul 3.7 mi NNE 3.5 mph - N/A   Desconocido
12:30 AM 37.4 ° F - 37.4 ° F 100% 30.48 pul 4.3 mi Variable 2.3 mph - N/A   Desconocido
1:00 AM 38 ° F - 37 ° F 94% 30.50 pul 4 mi Norte 3.5 mph - -  
1:00 AM 39.2 ° F 35.9 ° F 39.2 ° F 100% 30.48 pul 4.3 mi NNE 4.6 mph - N/A   Desconocido
1:30 AM 39.2 ° F 35.0 ° F 37.4 ° F 93% 30.48 pul 4.3 mi NNE 5.8 mph - N/A   Parcialmente nublado
2:00 AM 38 ° F - 37 ° F 94% 30.48 pul 5 mi NNE 4.6 mph - -  
2:00 AM 37.4 ° F 32.1 ° F 37.4 ° F 100% 30.45 pul 4.3 mi NE 6.9 mph - N/A   Parcialmente nublado
2:30 AM 39.2 ° F 34.2 ° F 39.2 ° F 100% 30.45 pul 6.2 mi NNE 6.9 mph - N/A   Parcialmente nublado
3:00 AM 39 ° F - 37 ° F 92% 30.48 pul 6 mi NNE 3.5 mph - -  
3:00 AM 39.2 ° F 35.0 ° F 37.4 ° F 93% 30.45 pul 6.2 mi NNE 5.8 mph - N/A   Nubes dispersas
3:30 AM 39.2 ° F 34.2 ° F 37.4 ° F 93% 30.45 pul 6.2 mi NNE 6.9 mph - N/A   Parcialmente nublado
4:00 AM 38 ° F - 36 ° F 88% 30.47 pul 5 mi NNE 4.6 mph - -  
4:00 AM 39.2 ° F 33.6 ° F 37.4 ° F 93% 30.45 pul 5.0 mi NNE 8.1 mph - N/A   Parcialmente nublado
4:30 AM 39.2 ° F 33.6 ° F 37.4 ° F 93% 30.45 pul 4.3 mi NNE 8.1 mph - N/A   Parcialmente nublado
5:00 AM 39.2 ° F 33.6 ° F 37.4 ° F 93% 30.45 pul 3.7 mi NNE 8.1 mph - N/A   Parcialmente nublado
5:30 AM 39.2 ° F 34.2 ° F 39.2 ° F 100% 30.45 pul 3.7 mi NNE 6.9 mph - N/A   Muy nublado
6:00 AM 38 ° F - 36 ° F 90% 30.45 pul 4 mi NNE 3.5 mph - -  
6:00 AM 39.2 ° F 33.6 ° F 37.4 ° F 93% 30.42 pul 3.7 mi NNE 8.1 mph - N/A   Nubes dispersas
6:30 AM 39.2 ° F 35.9 ° F 37.4 ° F 93% 30.42 pul 4.3 mi NNE 4.6 mph - N/A   Desconocido
7:00 AM 39.2 ° F 33.6 ° F 37.4 ° F 93% 30.42 pul 5.6 mi NNE 8.1 mph - N/A   Parcialmente nublado
7:30 AM 39.2 ° F 33.6 ° F 37.4 ° F 93% 30.42 pul 5.6 mi NNE 8.1 mph - N/A   Parcialmente nublado
8:00 AM 37 ° F - 36 ° F 93% 30.46 pul 4 mi NNE 4.6 mph - -  
8:00 AM 37.4 ° F 32.1 ° F 37.4 ° F 100% 30.45 pul 5.0 mi NNE 6.9 mph - N/A   Parcialmente nublado
8:30 AM 39.2 ° F 33.6 ° F 37.4 ° F 93% 30.45 pul 5.6 mi NNE 8.1 mph - N/A   Nubes dispersas
9:00 AM 40 ° F - 37 ° F 85% 30.46 pul 4 mi NNE 5.8 mph - -  
9:00 AM 39.2 ° F 33.6 ° F 37.4 ° F 93% 30.45 pul 5.6 mi NNE 8.1 mph - N/A   Parcialmente nublado
9:30 AM 41.0 ° F 35.2 ° F 37.4 ° F 87% 30.45 pul 5.6 mi NNE 9.2 mph - N/A   Parcialmente nublado
10:00 AM 47 ° F - 41 ° F 72% 30.47 pul 6 mi NNE 2.3 mph - -  
10:00 AM 44.6 ° F 42.2 ° F 41.0 ° F 87% 30.45 pul - NNE 4.6 mph - N/A   Despejado
10:30 AM 50.0 ° F - 42.8 ° F 76% 30.45 pul - Variable 2.3 mph - N/A   Despejado
11:00 AM 51.8 ° F - 42.8 ° F 71% 30.45 pul - NE 2.3 mph - N/A   Despejado
11:30 AM 53.6 ° F - 44.6 ° F 72% 30.45 pul - Sin viento Sin viento - N/A   Despejado
12:00 PM 58 ° F - 46 ° F 55% 30.45 pul 14 mi SO 6.9 mph - -  
12:00 PM 57.2 ° F - 46.4 ° F 67% 30.45 pul - OSO 3.5 mph - N/A   Despejado
12:30 PM 57.2 ° F - 46.4 ° F 67% 30.42 pul - SO 4.6 mph - N/A   Despejado
1:00 PM 59 ° F - 44 ° F 47% 30.43 pul 19 mi SO 4.6 mph - -   Parcialmente nublado
1:00 PM 59.0 ° F - 44.6 ° F 59% 30.42 pul - SSO 3.5 mph - N/A   Despejado
1:30 PM 59.0 ° F - 42.8 ° F 55% 30.39 pul - SO 4.6 mph - N/A   Despejado
2:00 PM 58 ° F - 42 ° F 43% 30.40 pul 16 mi SO 4.6 mph - -  
2:00 PM 57.2 ° F - 44.6 ° F 63% 30.39 pul - SO 4.6 mph - N/A   Despejado
2:30 PM 57.2 ° F - 41.0 ° F 55% 30.39 pul - OSO 4.6 mph - N/A   Despejado
3:00 PM 58 ° F - 39 ° F 37% 30.39 pul 19 mi SO 4.6 mph - -  
3:00 PM 57.2 ° F - 39.2 ° F 51% 30.36 pul - OSO 4.6 mph - N/A   Despejado
3:30 PM 57.2 ° F - 39.2 ° F 51% 30.36 pul - Variable 2.3 mph - N/A   Despejado
4:00 PM 56 ° F - 33 ° F 29% 30.38 pul 19 mi OSO 4.6 mph - -   Muy nublado
4:00 PM 57.2 ° F - 33.8 ° F 41% 30.36 pul - Variable 2.3 mph - N/A   Despejado
4:30 PM 57.2 ° F - 32.0 ° F 38% 30.36 pul - SSO 2.3 mph - N/A   Despejado
5:00 PM 54 ° F - 33 ° F 33% 30.38 pul 19 mi Sur 2.3 mph - -  
5:00 PM 55.4 ° F - 33.8 ° F 44% 30.36 pul - Sin viento Sin viento - N/A   Despejado
5:30 PM 51.8 ° F - 37.4 ° F 58% 30.36 pul - Variable 1.2 mph - N/A   Despejado
6:00 PM 50.0 ° F - 39.2 ° F 66% 30.36 pul 5.6 mi Norte 3.5 mph - N/A   Desconocido
6:30 PM 46.4 ° F 45.2 ° F 39.2 ° F 76% 30.36 pul 4.3 mi NE 3.5 mph - N/A   Desconocido
7:00 PM 44 ° F - 37 ° F 67% 30.38 pul 4 mi NNO 4.6 mph - -   Neblina
7:00 PM 44.6 ° F - 37.4 ° F 76% 30.36 pul 3.7 mi Variable 1.2 mph - N/A   Desconocido
7:30 PM 42.8 ° F - 37.4 ° F 81% 30.36 pul 3.7 mi NE 2.3 mph - N/A   Desconocido
8:00 PM 41 ° F - 33 ° F 65% 30.39 pul 6 mi Norte 2.3 mph - -  
8:00 PM 41.0 ° F - 35.6 ° F 81% 30.36 pul 5.6 mi Variable 1.2 mph - N/A   Desconocido
8:30 PM 37.4 ° F 33.8 ° F 33.8 ° F 87% 30.36 pul 5.6 mi NE 4.6 mph - N/A   Desconocido
9:00 PM 39.2 ° F 35.0 ° F 33.8 ° F 81% 30.36 pul - NNE 5.8 mph - N/A   Despejado
9:30 PM 41.0 ° F - 35.6 ° F 81% 30.36 pul - Variable 2.3 mph - N/A   Despejado
10:00 PM 38 ° F - 31 ° F 68% 30.38 pul 8 mi NNE 4.6 mph - -  
10:00 PM 39.2 ° F - 33.8 ° F 81% 30.36 pul - NNE 2.3 mph - N/A   Despejado
10:30 PM 39.2 ° F 37.0 ° F 32.0 ° F 75% 30.36 pul - NNE 3.5 mph - N/A   Despejado
11:00 PM 36 ° F - 30 ° F 72% 30.37 pul 10 mi NE 4.6 mph - -  
11:00 PM 37.4 ° F 33.8 ° F 32.0 ° F 81% 30.36 pul - NNE 4.6 mph - N/A   Despejado
11:30 PM 41.0 ° F 36.4 ° F 33.8 ° F 76% 30.33 pul - NNE 6.9 mph - N/A   Despejado